Probability
0 0 0 0 0 0 0 0 0 1 2 2 1 0 0 0 0 0 0 0 0 0 0 0 0 0 0 0 0 0 0 0 0 0 0 0 0 0 0 0 0 0 0
0 0 0 0 0 0 0 0 0 1 2 3 2 1 0 0 0 0 0 0 0 0 0 0 0 0 0 0 0 0 0 0 0 0 0 0 0 0 0 0 0 0 0
0 0 0 0 0 0 0 0 0 1 2 3 3 2 1 1 0 0 0 0 0 0 0 0 0 0 0 0 0 0 0 0 0 0 0 0 0 0 0 0 0 0 0
0 0 0 0 0 0 0 0 0 0 1 3 3 3 3 2 1 0 0 0 0 0 0 0 0 0 0 0 0 0 0 0 0 0 0 0 0 0 0 0 0 0 0
0 0 0 0 0 0 0 0 0 0 1 2 3 3 3 3 2 1 1 0 0 0 0 0 0 0 0 0 0 0 0 0 0 0 0 0 0 0 0 0 0 0 0
0 0 0 0 0 0 0 0 0 0 0 1 3 3 3 3 3 3 2 1 0 0 0 0 0 0 0 0 0 0 0 0 0 0 0 0 0 0 0 0 0 0 0
0 0 0 0 0 0 0 0 0 0 0 1 2 3 3 3 3 3 3 2 1 0 0 0 0 0 0 0 0 0 0 0 0 0 0 0 0 0 0 0 0 0 0
0 0 0 0 0 0 0 0 0 0 0 0 1 1 2 3 3 3 3 3 2 1 0 0 0 0 0 0 0 0 0 0 0 0 0 0 0 0 0 0 0 0 0
0 0 0 0 0 0 0 0 0 0 0 0 0 0 1 2 3 3 3 3 3 2 1 0 0 0 0 0 0 0 0 1 1 1 0 0 0 0 0 0 0 0 0
0 0 0 0 0 0 0 0 0 0 1 1 1 0 0 1 1 2 3 3 3 3 2 1 0 0 0 0 0 0 1 2 2 2 1 1 0 0 0 0 0 0 0
0 0 0 0 0 0 0 0 0 0 1 2 1 0 0 0 0 1 1 2 3 3 3 1 0 0 0 0 0 0 1 2 3 3 3 2 1 1 1 1 0 0 0
0 0 0 0 0 0 0 0 0 0 1 1 1 0 0 0 0 0 0 1 2 3 3 2 1 0 0 0 0 0 0 1 1 2 3 3 3 2 2 2 1 1 0
0 0 0 0 0 0 0 0 0 0 0 0 0 0 0 0 0 0 0 0 1 3 3 3 1 0 0 0 0 0 0 0 0 1 2 3 3 3 3 3 3 3 2
0 0 0 0 0 0 0 0 0 0 0 0 0 0 0 0 0 0 0 0 1 2 3 3 2 1 0 0 0 0 0 0 0 0 1 2 4 4 4 4 5 5 4
0 0 0 0 0 0 0 0 0 0 0 0 0 0 0 0 0 0 0 0 1 2 3 3 3 1 0 0 0 0 0 0 0 0 0 1 3 4 3 3 4 5 6
0 0 0 0 0 0 0 0 0 0 0 0 0 0 0 0 0 0 0 0 0 2 3 3 3 2 1 0 0 0 0 0 0 0 0 1 1 1 1 1 2 3 4
0 0 0 0 0 0 0 0 0 0 0 0 0 0 0 0 0 0 0 0 0 1 2 2 2 2 1 0 0 0 0 0 0 0 0 1 0 0 0 0 0 1 1
0 0 0 0 0 0 0 0 0 0 0 0 0 0 0 0 0 0 0 0 0 1 1 1 1 1 0 0 0 0 0 0 0 0 0 0 0 0 0 0 0 0 0
0 0 0 0 0 0 0 0 0 0 0 0 0 0 0 0 0 0 0 0 0 0 0 0 0 0 0 0 0 0 0 0 0 0 0 0 0 0 0 0 0 0 0
0 0 0 0 0 0 0 0 0 0 0 0 0 0 0 0 0 0 0 0 0 0 0 0 0 0 0 0 0 0 0 0 0 0 0 0 0 0 0 0 0 0 0
0 0 0 0 0 0 0 0 0 0 0 0 0 0 0 0 0 0 0 0 0 0 0 0 0 0 0 0 0 0 0 0 0 0 0 0 0 0 0 0 0 0 0
0 0 0 0 0 0 0 0 0 0 0 0 0 0 0 0 0 0 0 0 0 0 0 0 0 0 0 0 0 0 0 0 0 0 0 0 0 0 0 0 0 0 0
0 0 0 0 0 0 0 0 0 0 0 0 0 0 0 0 0 0 0 0 0 0 0 0 0 0 0 0 0 0 0 0 0 0 0 0 0 0 0 0 0 0 0
0 0 0 0 0 0 0 0 0 0 0 0 0 0 0 0 0 0 0 0 0 0 0 0 0 0 0 0 0 0 0 0 0 0 0 0 0 0 0 0 0 0 0
0 0 0 0 0 0 0 0 0 0 0 0 0 0 0 0 0 0 0 0 0 0 0 0 0 0 0 0 0 0 0 0 0 0 0 0 0 0 0 0 0 0 0
0 0 0 0 0 0 0 0 0 0 0 0 0 0 0 0 0 0 0 0 0 0 0 0 0 0 0 0 0 0 0 0 0 0 0 0 0 0 0 0 0 0 0
Wind_Speed
12 10 11 11 11 11 13 14 15 14 11 9 9 10 11 9 8 8 10 11 10 11 10 8 8 9 9 9 9 6 7 6 3 3 4 5 7 9 8 8 7 9 9
10 10 10 10 11 13 14 14 15 14 14 12 10 7 7 6 7 6 8 11 11 12 11 11 9 9 9 9 10 9 6 5 5 4 2 4 5 7 9 8 9 10 7
13 11 10 11 11 12 14 13 15 15 15 13 7 4 4 3 5 8 10 12 12 12 12 13 11 10 10 11 12 11 11 9 7 6 5 5 7 3 4 7 9 8 8
13 12 10 10 11 13 12 13 14 14 14 13 10 12 12 13 13 10 9 10 12 13 13 13 13 12 11 12 11 11 10 10 8 6 7 6 4 3 4 3 5 7 9
13 13 11 11 11 11 10 11 12 12 12 13 14 14 14 12 8 7 8 9 10 12 14 14 13 13 12 13 12 11 12 11 11 8 5 8 6 6 5 7 4 3 6
11 11 10 8 8 8 8 8 9 11 11 13 14 15 16 14 10 9 10 10 9 10 13 14 14 14 13 13 14 13 14 13 13 11 9 7 6 8 8 11 8 6 5
10 9 8 6 6 5 6 7 8 9 9 11 12 14 15 15 15 13 12 10 9 10 13 13 14 14 15 14 13 13 14 15 14 14 12 11 11 6 6 9 8 7 5
7 7 7 6 5 5 5 5 6 7 7 8 10 11 12 11 10 12 10 10 10 10 10 12 13 14 14 14 13 13 14 13 15 16 15 12 11 10 9 8 7 8 7
5 5 4 3 3 2 3 4 5 5 5 6 7 8 10 10 11 11 11 10 9 8 10 11 13 14 14 14 14 13 14 14 15 15 15 14 11 10 10 9 9 10 11
3 2 1 1 0 1 1 1 2 4 4 4 5 5 7 9 10 9 10 10 10 10 10 11 12 13 14 14 14 13 13 15 15 12 14 15 12 11 10 10 10 11 13
3 2 1 1 1 2 2 2 1 1 2 2 4 4 5 6 7 8 9 10 9 10 11 11 12 12 13 13 14 15 14 16 16 14 16 17 14 12 11 10 11 11 11
2 2 2 2 3 3 3 3 2 2 2 3 3 4 5 5 6 7 8 8 9 9 10 10 11 12 12 12 14 15 15 16 17 16 16 17 13 16 13 11 13 12 12
2 2 2 2 3 3 3 3 3 3 4 4 3 4 4 5 6 7 7 7 8 9 9 9 11 11 12 12 13 14 15 15 16 16 17 17 15 16 13 13 13 11 10
2 2 1 1 2 2 2 3 3 3 3 3 3 4 5 6 6 7 7 7 8 8 9 10 11 11 11 12 12 13 14 15 15 15 16 16 16 16 15 13 14 12 11
1 0 0 1 1 2 2 3 4 4 4 4 4 5 6 6 6 6 7 7 7 8 9 9 10 10 10 10 11 12 14 15 15 15 15 16 17 18 15 12 12 12 12
2 1 1 1 1 2 3 3 4 4 4 4 4 5 6 7 7 7 7 7 8 8 8 9 10 11 9 12 14 13 12 13 14 15 14 14 15 17 19 19 18 16 15
3 2 1 1 1 2 2 3 4 5 5 4 5 5 6 7 8 9 8 8 8 8 8 9 9 11 12 13 14 15 13 12 13 14 13 11 10 13 13 15 17 17 18
3 2 1 2 2 3 4 4 5 5 5 5 5 6 6 7 8 8 8 8 7 7 8 9 9 10 11 12 13 13 13 13 13 12 12 12 12 11 12 11 12 13 14
2 1 0 1 2 4 5 5 5 4 4 5 6 7 7 8 8 9 9 8 8 8 7 8 9 10 11 11 11 10 9 10 11 10 10 11 11 13 13 12 12 11 10
2 2 2 3 3 4 5 5 5 5 6 7 7 7 7 7 9 9 9 7 7 8 8 8 8 9 10 10 10 10 7 8 8 8 8 9 11 12 12 12 11 12 10
3 3 3 3 3 4 5 5 5 6 7 8 8 8 7 8 8 8 7 8 7 7 7 8 8 7 8 10 10 10 7 7 7 7 7 6 10 12 12 12 11 13 9
3 3 3 3 3 4 4 5 6 7 8 8 8 9 8 7 7 8 8 7 7 8 8 7 8 6 5 6 8 9 9 8 7 7 6 6 9 11 11 10 10 10 8
3 3 2 3 4 5 5 5 7 8 8 8 9 8 9 7 7 7 7 7 6 6 7 6 7 7 5 5 8 9 9 9 6 6 8 8 9 8 7 8 8 7 5
2 2 2 3 4 5 5 5 7 7 7 8 8 8 8 8 7 6 5 5 5 6 6 6 7 7 7 5 4 4 4 5 5 5 5 7 7 6 5 4 4 4 4
2 2 2 3 4 5 6 6 6 6 7 7 8 8 7 7 7 6 5 6 5 5 7 7 6 7 8 8 9 7 5 4 4 4 4 4 4 3 3 3 2 2 2
2 2 3 3 5 5 6 6 6 5 6 6 7 6 6 6 6 7 7 8 8 10 11 11 10 8 10 13 13 11 10 9 7 4 4 5 4 4 4 4 3 2 3
Wind_Direction
245 237 228 222 215 210 207 206 204 203 195 194 199 204 213 211 210 212 210 207 209 207 209 214 209 207 213 215 210 207 213 219 190 210 262 267 245 241 238 233 232 231 227
253 244 233 224 216 212 209 208 208 203 200 203 202 203 203 209 213 213 214 212 212 210 212 215 215 212 217 217 214 209 213 215 186 186 204 277 284 248 236 229 230 233 226
241 242 234 225 218 216 213 211 209 207 204 203 193 188 186 202 208 215 218 217 214 214 216 217 217 216 217 222 219 214 215 221 210 197 186 208 239 279 267 235 231 229 225
238 238 233 227 219 219 215 212 210 208 205 199 195 197 205 215 219 217 217 213 212 216 218 219 219 220 220 224 222 217 219 218 222 216 220 219 189 209 285 280 243 233 231
235 234 231 226 223 218 213 211 209 209 205 200 202 205 215 223 225 215 217 217 215 217 219 220 221 223 224 225 223 218 218 219 224 218 210 226 233 228 238 270 275 258 238
235 235 235 232 230 221 212 209 206 210 206 203 206 209 216 221 220 217 220 221 221 221 221 221 222 224 226 226 225 223 222 224 226 225 217 208 213 218 223 243 252 255 249
232 232 233 230 226 218 213 210 208 214 210 206 209 213 218 221 223 223 224 224 224 224 223 220 224 226 228 228 226 225 227 226 226 228 230 229 230 219 216 234 247 250 250
229 226 226 223 220 213 205 201 204 215 212 210 215 218 220 222 227 227 226 225 227 229 226 221 225 227 227 228 226 228 229 228 229 231 231 235 235 230 226 229 237 256 256
224 220 217 210 209 198 197 199 204 213 217 219 224 225 224 225 229 230 228 231 232 231 227 225 226 227 227 227 227 230 230 229 231 233 232 235 236 233 233 230 226 242 261
208 210 200 173 149 153 201 195 199 213 223 228 232 241 239 235 235 234 234 234 235 232 231 228 228 229 228 227 227 231 232 232 232 232 234 235 236 234 231 231 231 231 245
197 170 135 97 68 51 45 34 357 285 274 258 253 257 257 255 251 245 243 242 243 238 235 233 232 231 230 228 229 232 231 232 235 233 234 237 234 235 233 230 231 233 235
149 129 107 70 52 42 30 20 12 354 319 295 278 268 270 270 266 262 258 254 252 247 242 240 237 236 235 232 232 235 234 235 236 236 235 238 234 235 234 232 233 234 231
116 88 70 58 47 31 16 6 4 350 337 335 322 304 295 290 281 276 274 267 259 256 251 244 241 240 238 236 235 237 238 238 239 238 236 238 235 236 234 233 234 234 232
121 101 68 44 35 26 14 2 353 350 343 338 330 316 304 292 286 285 284 279 271 264 258 251 246 243 242 240 238 238 241 242 242 240 239 237 234 236 235 234 234 233 232
176 143 35 3 8 4 356 352 345 345 343 341 334 317 310 306 299 295 291 288 281 271 265 261 256 250 245 241 239 240 242 244 245 244 241 239 236 235 233 233 233 230 234
219 215 263 306 331 341 343 345 341 340 341 337 327 324 322 318 315 308 299 294 288 280 273 265 261 257 252 250 242 240 246 247 247 248 246 242 236 236 232 231 229 226 230
223 224 239 273 310 324 339 340 337 337 340 334 328 329 327 322 317 313 310 302 295 290 283 275 269 264 261 257 249 241 245 249 249 248 248 247 242 234 236 234 232 233 232
226 236 275 321 341 358 360 353 348 341 335 330 328 328 326 319 316 314 310 306 302 295 289 286 281 278 277 271 261 252 247 252 252 249 246 246 244 235 229 233 235 236 236
210 201 348 2 15 16 5 355 345 339 335 331 327 324 321 315 314 312 308 306 305 303 299 297 292 287 287 283 275 267 261 260 260 257 252 248 248 241 225 227 234 238 241
89 69 51 40 34 13 2 358 346 342 337 327 320 317 315 310 308 305 303 302 300 297 300 297 293 288 288 290 282 269 265 268 270 269 261 251 247 245 228 229 232 237 238
82 68 60 45 21 4 2 356 347 341 331 324 320 317 316 311 307 306 305 306 304 299 296 294 293 288 287 292 285 273 264 267 272 269 268 262 251 245 238 232 234 235 226
66 57 48 25 13 10 5 350 340 334 331 327 322 319 317 315 313 310 309 308 304 300 298 298 298 294 289 288 290 283 272 270 270 272 273 269 259 248 240 237 239 227 213
57 38 30 6 1 6 4 341 330 331 329 327 322 319 317 315 314 310 308 309 306 299 299 299 299 302 302 295 290 287 283 276 272 274 276 279 274 264 253 244 231 219 213
45 24 15 354 341 345 345 330 325 329 326 320 318 319 319 317 316 310 304 303 304 299 298 298 298 302 305 305 304 298 297 295 289 288 286 282 278 270 263 256 236 232 224
10 9 353 327 321 328 325 324 327 328 320 314 315 317 316 313 313 308 298 296 288 287 291 293 293 298 300 305 308 305 300 295 287 291 295 292 290 287 275 262 247 232 220
349 342 329 318 313 316 313 315 319 319 314 312 314 315 314 311 309 309 307 299 296 303 299 296 293 292 294 301 303 304 303 302 295 289 281 280 274 266 260 252 246 235 229